Location: Unspecified
(0.0000°N, 0.0000°E)
Time: 09:09:55
(UTC+00:00)

Vanguard 2 - Pass Details

Date: 28 October 2021
Orbit: 554 x 2936 km, 32.9° (Epoch: 06 December)

Event Time Altitude Azimuth Distance (km) Brightness Sun altitude
Rises 22:18:38 0° 255° (WSW) 6,582 12.6 -65.0°
Reaches altitude 10° 22:23:19 10° 262° (W) 5,697 12.1 -66.0°
Enters shadow 22:30:53 28° 281° (W) 4,446 11.3 -67.5°
Maximum altitude 22:39:24 41° 326° (NW) 3,671 - -69.2°
Drops below altitude 10° 22:53:12 10° 31° (NNE) 4,874 - -71.6°
Sets 22:56:55 0° 39° (NE) 5,584 - -72.2°
